| time (UTC) | temp F | wind direction | speed MPH | gust MPH | rain 1hr in | rain 24hr in | rain mn in | humidity % | barometer mb |
| 20260906105005 | 64 | 32 | 1.0 | 7.0 | 0.00 | 0.02 | 0.00 | 77 | 1025.3 |
| 20260906104504 | 64 | 16 | 1.0 | 7.0 | 0.00 | 0.02 | 0.00 | 77 | 1025.4 |
| 20260906104005 | 64 | 67 | 0.0 | 3.0 | 0.00 | 0.02 | 0.00 | 76 | 1025.3 |
| 20260906103719 | 64 | 70 | 0.0 | 4.0 | 0.00 | 0.02 | 0.00 | 76 | 1025.4 |
| 20260906103004 | 64 | 103 | 1.0 | 4.0 | 0.00 | 0.03 | 0.00 | 76 | 1025.3 |
| 20260906102503 | 64 | 345 | 1.0 | 8.0 | 0.00 | 0.04 | 0.00 | 76 | 1025.4 |
| 20260906102004 | 64 | 42 | 1.0 | 8.0 | 0.00 | 0.04 | 0.00 | 76 | 1025.3 |
| 20260906101505 | 64 | 93 | 1.0 | 3.0 | 0.00 | 0.05 | 0.00 | 76 | 1025.2 |
| 20260906101003 | 64 | 64 | 0.0 | 3.0 | 0.00 | 0.06 | 0.00 | 76 | 1025.3 |
| 20260906100504 | 64 | 84 | 0.0 | 4.0 | 0.00 | 0.07 | 0.00 | 76 | 1025.4 |
| 20260906100004 | 64 | 97 | 0.0 | 5.0 | 0.00 | 0.07 | 0.00 | 76 | 1025.2 |
| 20260906095504 | 64 | 84 | 0.0 | 5.0 | 0.00 | 0.08 | 0.00 | 76 | 1025.1 |
| 20260906095003 | 64 | 60 | 0.0 | 5.0 | 0.00 | 0.08 | 0.00 | 76 | 1025.1 |
| 20260906094503 | 64 | 94 | 1.0 | 4.0 | 0.00 | 0.08 | 0.00 | 75 | 1025.1 |
| 20260906094003 | 64 | 95 | 1.0 | 4.0 | 0.00 | 0.11 | 0.00 | 75 | 1025.2 |
| 20260906093503 | 64 | 53 | 1.0 | 5.0 | 0.00 | 0.13 | 0.00 | 76 | 1025.0 |
| 20260906093004 | 64 | 20 | 1.0 | 5.0 | 0.00 | 0.14 | 0.00 | 77 | 1025.3 |
| 20260906092505 | 63 | 28 | 1.0 | 5.0 | 0.00 | 0.14 | 0.00 | 77 | 1025.1 |
| 20260906092005 | 63 | 66 | 1.0 | 3.0 | 0.00 | 0.14 | 0.00 | 78 | 1025.1 |
| 20260906091504 | 63 | 89 | 0.0 | 3.0 | 0.00 | 0.14 | 0.00 | 79 | 1025.1 |
| 20260906091006 | 63 | 81 | 0.0 | 3.0 | 0.00 | 0.14 | 0.00 | 80 | 1024.9 |
| 20260906090504 | 62 | 29 | 0.0 | 3.0 | 0.00 | 0.14 | 0.00 | 80 | 1024.9 |
| 20260906090003 | 62 | 70 | 1.0 | 4.0 | 0.00 | 0.14 | 0.00 | 80 | 1025.1 |
| 20260906085718 | 62 | 75 | 1.0 | 5.0 | 0.00 | 0.14 | 0.00 | 80 | 1024.9 |
| 20260906085003 | 62 | 74 | 0.0 | 5.0 | 0.00 | 0.14 | 0.00 | 81 | 1025.2 |
| 20260906084507 | 62 | 105 | 0.0 | 4.0 | 0.00 | 0.14 | 0.00 | 81 | 1025.0 |
| 20260906084004 | 62 | 80 | 0.0 | 4.0 | 0.00 | 0.14 | 0.00 | 81 | 1025.1 |
| 20260906083504 | 62 | 79 | 0.0 | 4.0 | 0.00 | 0.14 | 0.00 | 81 | 1025.0 |
| 20260906083003 | 62 | 90 | 0.0 | 4.0 | 0.00 | 0.14 | 0.00 | 81 | 1024.7 |
| 20260906082506 | 62 | 107 | 0.0 | 4.0 | 0.00 | 0.14 | 0.00 | 82 | 1024.6 |
| 20260906082005 | 62 | 93 | 1.0 | 4.0 | 0.00 | 0.14 | 0.00 | 82 | 1024.7 |
| 20260906081505 | 62 | 71 | 1.0 | 4.0 | 0.00 | 0.14 | 0.00 | 82 | 1024.5 |
| 20260906081005 | 62 | 46 | 1.0 | 4.0 | 0.00 | 0.14 | 0.00 | 82 | 1024.4 |
| 20260906080503 | 62 | 74 | 1.0 | 7.0 | 0.00 | 0.14 | 0.00 | 83 | 1024.5 |
| 20260906080221 | 62 | 92 | 1.0 | 7.0 | 0.00 | 0.14 | 0.00 | 83 | 1024.6 |
| 20260906075503 | 61 | 125 | 1.0 | 5.0 | 0.00 | 0.14 | 0.00 | 85 | 1024.5 |
| 20260906075005 | 60 | 129 | 0.0 | 3.0 | 0.00 | 0.14 | 0.00 | 85 | 1024.5 |
| 20260906074505 | 60 | 77 | 0.0 | 3.0 | 0.00 | 0.14 | 0.00 | 85 | 1024.4 |
| 20260906074003 | 60 | 74 | 0.0 | 4.0 | 0.00 | 0.14 | 0.00 | 86 | 1024.5 |
| 20260906073504 | 60 | 68 | 0.0 | 4.0 | 0.00 | 0.14 | 0.00 | 86 | 1024.5 |
| 20260906073003 | 59 | 49 | 0.0 | 4.0 | 0.00 | 0.14 | 0.00 | 87 | 1024.4 |
| 20260906072503 | 59 | 90 | 0.0 | 1.0 | 0.00 | 0.14 | 0.00 | 87 | 1024.4 |
| 20260905163003 | 60 | 187 | 2.0 | 7.0 | 0.00 | 0.30 | 0.20 | 87 | 1017.4 |
| 20260905162720 | 60 | 182 | 2.0 | 7.0 | 0.00 | 0.30 | 0.20 | 88 | 1017.2 |
| 20260905162006 | 60 | 148 | 2.0 | 7.0 | 0.02 | 0.30 | 0.20 | 88 | 1017.3 |
| 20260905161503 | 60 | 148 | 1.0 | 5.0 | 0.02 | 0.30 | 0.20 | 88 | 1017.2 |
| 20260905161003 | 60 | 202 | 1.0 | 7.0 | 0.02 | 0.30 | 0.20 | 87 | 1017.1 |
| 20260905160503 | 60 | 227 | 1.0 | 7.0 | 0.02 | 0.30 | 0.20 | 87 | 1017.0 |
| 20260905160005 | 60 | 202 | 2.0 | 7.0 | 0.02 | 0.30 | 0.20 | 87 | 1017.0 |
| 20260905155505 | 61 | 191 | 1.0 | 11.0 | 0.02 | 0.30 | 0.20 | 87 | 1017.0 |
| 20260905155219 | 61 | 184 | 2.0 | 11.0 | 0.02 | 0.30 | 0.20 | 87 | 1016.8 |
| 20260905154716 | 61 | 149 | 2.0 | 11.0 | 0.02 | 0.30 | 0.20 | 87 | 1016.8 |
| 20260905154005 | 61 | 169 | 3.0 | 8.0 | 0.02 | 0.30 | 0.20 | 87 | 1016.8 |
| 20260905153503 | 62 | 195 | 2.0 | 8.0 | 0.02 | 0.30 | 0.20 | 86 | 1016.6 |
| 20260905153005 | 62 | 163 | 2.0 | 10.0 | 0.02 | 0.30 | 0.20 | 85 | 1016.3 |
| 20260905152503 | 62 | 183 | 3.0 | 10.0 | 0.00 | 0.28 | 0.18 | 84 | 1016.7 |
| 20260905152006 | 62 | 187 | 2.0 | 18.0 | 0.00 | 0.28 | 0.18 | 85 | 1016.1 |
| 20260905151505 | 62 | 212 | 3.0 | 18.0 | 0.00 | 0.28 | 0.18 | 85 | 1016.2 |
| 20260905151005 | 62 | 210 | 3.0 | 18.0 | 0.00 | 0.28 | 0.18 | 85 | 1016.1 |
| 20260905150505 | 62 | 190 | 3.0 | 11.0 | 0.00 | 0.28 | 0.18 | 86 | 1016.1 |
| 20260905150003 | 62 | 276 | 3.0 | 10.0 | 0.00 | 0.28 | 0.18 | 85 | 1015.9 |
| 20260905145718 | 62 | 263 | 3.0 | 10.0 | 0.00 | 0.28 | 0.18 | 85 | 1016.0 |
| 20260905145003 | 62 | 164 | 2.0 | 11.0 | 0.00 | 0.28 | 0.18 | 85 | 1015.8 |
| 20260905144503 | 62 | 208 | 3.0 | 14.0 | 0.00 | 0.28 | 0.18 | 84 | 1016.0 |
| 20260905144004 | 62 | 219 | 4.0 | 16.0 | 0.00 | 0.28 | 0.18 | 83 | 1015.7 |
| 20260905143503 | 62 | 300 | 3.0 | 16.0 | 0.00 | 0.28 | 0.18 | 83 | 1015.6 |